TimeCST,TemperatureF,Dew PointF,Humidity,Sea Level PressureIn,VisibilityMPH,Wind Direction,Wind SpeedMPH,Gust SpeedMPH,PrecipitationIn,Events,Conditions,WindDirDegrees,DateUTC
12:15 AM,42.8,32.0,66,29.94,10.0,ENE,8.1,-,N/A,,Clear,60,2012-11-26 06:15:00
12:35 AM,41.0,32.0,70,29.94,10.0,ENE,6.9,-,N/A,,Clear,60,2012-11-26 06:35:00
12:55 AM,41.0,32.0,70,29.94,10.0,ENE,9.2,-,N/A,,Clear,70,2012-11-26 06:55:00
1:15 AM,42.8,32.0,66,29.93,10.0,East,9.2,-,N/A,,Clear,80,2012-11-26 07:15:00
1:35 AM,42.8,32.0,66,29.93,10.0,East,8.1,-,N/A,,Clear,80,2012-11-26 07:35:00
1:55 AM,41.0,32.0,70,29.93,10.0,ENE,10.4,-,N/A,,Clear,70,2012-11-26 07:55:00
2:15 AM,39.2,32.0,75,29.94,10.0,ENE,9.2,-,N/A,,Clear,60,2012-11-26 08:15:00
2:35 AM,39.2,32.0,75,29.94,10.0,NE,5.8,-,N/A,,Clear,50,2012-11-26 08:35:00
2:55 AM,41.0,32.0,70,29.94,10.0,ENE,9.2,-,N/A,,Mostly Cloudy,60,2012-11-26 08:55:00
3:15 AM,41.0,32.0,70,29.94,10.0,ENE,9.2,-,N/A,,Overcast,70,2012-11-26 09:15:00
3:35 AM,42.8,32.0,66,29.94,10.0,East,8.1,-,N/A,,Mostly Cloudy,80,2012-11-26 09:35:00
3:55 AM,42.8,33.8,70,29.93,10.0,East,8.1,-,N/A,,Mostly Cloudy,90,2012-11-26 09:55:00
4:15 AM,44.6,35.6,71,29.93,10.0,East,6.9,-,N/A,,Overcast,80,2012-11-26 10:15:00
4:35 AM,44.6,35.6,71,29.93,10.0,East,8.1,-,N/A,,Overcast,100,2012-11-26 10:35:00
4:55 AM,46.4,35.6,66,29.93,10.0,East,8.1,-,N/A,,Overcast,100,2012-11-26 10:55:00
5:15 AM,46.4,35.6,66,29.93,10.0,ENE,5.8,-,N/A,,Overcast,60,2012-11-26 11:15:00
5:35 AM,42.8,35.6,76,29.94,10.0,NNE,4.6,-,N/A,,Mostly Cloudy,30,2012-11-26 11:35:00
5:55 AM,42.8,35.6,76,29.95,10.0,NNE,6.9,-,N/A,,Overcast,20,2012-11-26 11:55:00
6:15 AM,41.0,33.8,76,29.96,10.0,NE,8.1,-,N/A,,Overcast,40,2012-11-26 12:15:00
6:35 AM,41.0,33.8,76,29.96,10.0,NE,6.9,-,N/A,,Overcast,50,2012-11-26 12:35:00
6:55 AM,41.0,33.8,76,29.97,10.0,NE,6.9,-,N/A,,Overcast,50,2012-11-26 12:55:00
7:15 AM,41.0,33.8,76,29.97,10.0,ENE,6.9,-,N/A,,Overcast,60,2012-11-26 13:15:00
7:35 AM,41.0,33.8,76,29.99,10.0,NNE,10.4,-,N/A,,Overcast,30,2012-11-26 13:35:00
7:55 AM,41.0,32.0,70,29.99,10.0,NE,9.2,-,N/A,,Overcast,40,2012-11-26 13:55:00
8:15 AM,41.0,32.0,70,30.00,10.0,NE,8.1,-,N/A,,Overcast,40,2012-11-26 14:15:00
8:35 AM,41.0,32.0,70,30.01,10.0,NE,8.1,-,N/A,,Overcast,40,2012-11-26 14:35:00
8:55 AM,41.0,32.0,70,30.03,10.0,NNE,11.5,16.1,N/A,,Overcast,20,2012-11-26 14:55:00
9:15 AM,39.2,32.0,75,30.03,10.0,NE,9.2,-,N/A,,Overcast,40,2012-11-26 15:15:00
9:35 AM,39.2,32.0,75,30.03,10.0,NNE,8.1,-,N/A,,Overcast,30,2012-11-26 15:35:00
9:55 AM,39.2,32.0,75,30.05,10.0,NNE,10.4,17.3,N/A,,Overcast,30,2012-11-26 15:55:00
10:15 AM,39.2,32.0,75,30.05,10.0,NE,10.4,-,N/A,,Overcast,40,2012-11-26 16:15:00
10:35 AM,41.0,32.0,70,30.06,10.0,NE,9.2,-,N/A,,Overcast,40,2012-11-26 16:35:00
10:55 AM,39.2,32.0,75,30.06,10.0,NNE,10.4,-,N/A,,Overcast,30,2012-11-26 16:55:00
11:15 AM,39.2,32.0,75,30.07,10.0,NE,9.2,-,N/A,,Overcast,40,2012-11-26 17:15:00
11:35 AM,39.2,32.0,75,30.08,10.0,North,12.7,17.3,N/A,,Overcast,10,2012-11-26 17:35:00
11:55 AM,39.2,32.0,75,30.07,10.0,NNE,10.4,-,N/A,,Overcast,20,2012-11-26 17:55:00
12:15 PM,39.2,32.0,75,30.07,10.0,NNE,8.1,16.1,N/A,,Overcast,30,2012-11-26 18:15:00
12:35 PM,39.2,32.0,75,30.08,10.0,NNE,11.5,-,N/A,,Overcast,20,2012-11-26 18:35:00
12:55 PM,39.2,32.0,75,30.08,10.0,NNE,15.0,18.4,N/A,,Drizzle,20,2012-11-26 18:55:00
1:15 PM,39.2,33.8,81,30.08,10.0,North,11.5,17.3,N/A,,Light Drizzle,10,2012-11-26 19:15:00
1:35 PM,39.2,33.8,81,30.09,10.0,NNE,12.7,-,N/A,,Overcast,20,2012-11-26 19:35:00
1:55 PM,41.0,32.0,70,30.09,10.0,North,15.0,-,N/A,,Overcast,10,2012-11-26 19:55:00
2:15 PM,41.0,32.0,70,30.10,10.0,NNE,17.3,24.2,N/A,,Overcast,20,2012-11-26 20:15:00
2:35 PM,41.0,32.0,70,30.11,10.0,North,13.8,18.4,N/A,,Overcast,10,2012-11-26 20:35:00
2:55 PM,41.0,32.0,70,30.12,10.0,NNE,13.8,21.9,N/A,,Overcast,20,2012-11-26 20:55:00
3:15 PM,41.0,32.0,70,30.13,10.0,NNE,12.7,20.7,N/A,,Light Drizzle,30,2012-11-26 21:15:00
3:35 PM,41.0,32.0,70,30.14,10.0,NNE,10.4,-,N/A,Rain,Light Rain,30,2012-11-26 21:35:00
3:55 PM,42.8,30.2,61,30.15,10.0,NNE,17.3,25.3,N/A,,Overcast,30,2012-11-26 21:55:00
4:15 PM,42.8,26.6,53,30.16,10.0,NNE,19.6,24.2,N/A,,Overcast,20,2012-11-26 22:15:00
4:35 PM,42.8,23.0,46,30.18,10.0,NNE,16.1,20.7,N/A,,Overcast,30,2012-11-26 22:35:00
4:55 PM,42.8,23.0,46,30.20,10.0,NNE,16.1,21.9,N/A,,Overcast,20,2012-11-26 22:55:00
5:15 PM,41.0,26.6,57,30.22,10.0,NNE,18.4,24.2,N/A,,Overcast,20,2012-11-26 23:15:00
5:35 PM,41.0,26.6,57,30.23,10.0,North,19.6,27.6,N/A,,Overcast,10,2012-11-26 23:35:00
5:55 PM,39.2,26.6,61,30.25,10.0,NNE,15.0,23.0,N/A,,Overcast,20,2012-11-26 23:55:00
6:15 PM,39.2,26.6,61,30.25,10.0,NNE,11.5,24.2,N/A,,Overcast,20,2012-11-27 00:15:00
6:35 PM,39.2,26.6,61,30.26,10.0,NNE,17.3,21.9,N/A,,Overcast,20,2012-11-27 00:35:00
6:55 PM,37.4,26.6,65,30.27,10.0,NNE,8.1,19.6,N/A,,Mostly Cloudy,20,2012-11-27 00:55:00
7:15 PM,37.4,26.6,65,30.28,10.0,NNE,6.9,-,N/A,,Scattered Clouds,20,2012-11-27 01:15:00
7:35 PM,35.6,26.6,70,30.29,10.0,North,8.1,-,N/A,,Clear,10,2012-11-27 01:35:00
7:55 PM,35.6,26.6,70,30.30,10.0,NNE,8.1,-,N/A,,Clear,20,2012-11-27 01:55:00
8:15 PM,33.8,26.6,75,30.31,10.0,NNE,8.1,-,N/A,,Clear,20,2012-11-27 02:15:00
8:35 PM,33.8,26.6,75,30.32,10.0,NNE,9.2,-,N/A,,Clear,20,2012-11-27 02:35:00
8:55 PM,33.8,26.6,75,30.32,10.0,North,6.9,-,N/A,,Clear,10,2012-11-27 02:55:00
9:15 PM,33.8,26.6,75,30.33,10.0,NNE,8.1,-,N/A,,Clear,20,2012-11-27 03:15:00
9:35 PM,32.0,26.6,80,30.34,10.0,North,8.1,-,N/A,,Clear,10,2012-11-27 03:35:00
9:55 PM,32.0,26.6,80,30.34,10.0,North,8.1,-,N/A,,Clear,10,2012-11-27 03:55:00
10:15 PM,32.0,26.6,80,30.35,10.0,North,11.5,18.4,N/A,,Clear,10,2012-11-27 04:15:00
10:35 PM,32.0,26.6,80,30.35,10.0,North,10.4,-,N/A,,Clear,10,2012-11-27 04:35:00
10:55 PM,32.0,26.6,80,30.36,10.0,North,10.4,-,N/A,,Clear,10,2012-11-27 04:55:00
11:15 PM,32.0,26.6,80,30.36,10.0,North,9.2,-,N/A,,Clear,360,2012-11-27 05:15:00
11:35 PM,30.2,26.6,86,30.35,10.0,North,9.2,-,N/A,,Clear,10,2012-11-27 05:35:00
11:55 PM,30.2,26.6,86,30.35,10.0,North,9.2,-,N/A,,Clear,360,2012-11-27 05:55:00